Location: Newark
(51.2625°N, 13.3939°E)
Time: 07:53:49
(UTC+00:00)

Transit 2A Rocket - Pass Details

Date: 22 January 2021
Orbit: 594 x 909 km, 66.7° (Epoch: 24 February)

Event Time Altitude Azimuth Distance (km) Brightness Sun altitude
Rises 19:18:38 0° 323° (NW) 2,980 8.7 -33.8°
Reaches altitude 10° 19:21:03 10° 329° (NNW) 2,027 7.6 -34.2°
Enters shadow 19:21:41 14° 331° (NNW) 1,790 7.3 -34.3°
